Flag for United Kingdom Weather past 2 weeks in Hinckley, England, United Kingdom

Now
65 °F

Mild.


Feels Like: 65 °F
Forecast: 59 / 69 °F
Wind: 6 mph from South

Location: Church Lawford

Current Time: Aug 2, 2015 at 12:00:26 PM

Latest Report: Aug 2, 2015 at 11:00 AM


Visibility: 28 mi

Pressure: 30.05 "Hg

Humidity: 62%

Dew point: 52 °F

Location of HinckleyLocation

Historic Weather in Hinckley — Graph

°F

Hinckley temperature yesterday

Maximum temperature yesterday: 68 °F (at 4:00 PM)
Minimum temperature yesterday: 46 °F (at 6:00 AM)
Average temperature yesterday: 58 °F

Past Weeks' High & Low Weather Summary

 TemperatureHumidityPressure
High72 °F (Jul 20, 4:00 PM)99% (Jul 31, 7:00 AM)30.17 "Hg (Jul 31, 7:00 AM)
Low38 °F (Jul 31, 5:00 AM)32% (Jul 31, 5:00 PM)29.35 "Hg (Jul 26, 8:00 PM)
Average58 °F75%29.87 "Hg
* Reported Jul 18 10:00 AM — Aug 2 10:00 AM, Hinckley, Weather by CustomWeather, © 2015

Note: Actual official high and low records may vary slightly from our data, if they occured in-between our weather recording intervals... More about our weather records

Advertising

Hinckley weather history for previous 24 hours

 ConditionsComfort  
Time TempWeatherWind HumidityBarometerVisibility
10:00 AM
Sun, Aug 2
62 °FCool.7 mph76%30.06 "Hg19 mi
9:00 AM58 °FCool.3 mph88%30.06 "Hg17 mi
8:00 AM56 °FCool.3 mph93%30.05 "Hg10 mi
7:00 AM55 °FCool.2 mph94%30.05 "Hg12 mi
6:00 AM53 °FCool.2 mph96%30.05 "Hg9 mi
5:00 AM52 °FCool.2 mph96%30.05 "Hg16 mi
4:00 AM52 °FCool.2 mph95%30.04 "Hg14 mi
3:00 AM53 °FCool.3 mph92%30.05 "Hg18 mi
2:00 AM55 °FCool.3 mph88%30.05 "Hg22 mi
12:00 AM55 °FCool.2 mph86%30.04 "Hg28 mi
11:00 PM
Sat, Aug 1
57 °FCool.3 mph81%30.03 "Hg28 mi
9:00 PM62 °FCool.6 mph71%30.00 "Hg19 mi
8:00 PM64 °FMild.8 mph65%29.98 "Hg28 mi
6:00 PM66 °FMild.10 mph58%29.96 "Hg25 mi
5:00 PM67 °FMild.9 mph57%29.96 "Hg22 mi
4:00 PM68 °FMild.9 mph52%29.96 "Hg25 mi
3:00 PM66 °FMild.10 mph57%29.96 "Hg28 mi
2:00 PM65 °FMild.7 mph57%29.96 "Hg22 mi
1:00 PM65 °FMild.7 mph59%29.97 "Hg28 mi
12:00 PM64 °FMild.8 mph61%29.98 "Hg15 mi
Weather by CustomWeather, © 2015

See weather overviewHow to use our weather pages